Weather History for KRWL - November, 2012

Change the Weather History Date:

Monday, November 12, 2012

  Actual Average Record
Temperature  
Mean Temperature 20 °F 32 °F  
Max Temperature 27 °F 42 °F 66 °F (1999)
Min Temperature 13 °F 21 °F -16 °F (2014)
Degree Days  
Heating Degree Days 45 33  
Month to date heating degree days 312 366  
Since 1 July heating degree days 1180 1425  
Cooling Degree Days 0 0  
Month to date cooling degree days 0 0  
Year to date cooling degree days 419 186  
Moisture  
Dew Point 9 °F    
Average Humidity 63    
Maximum Humidity 80    
Minimum Humidity 46    
Precipitation  
Precipitation 0.00 in 0.02 in 0.38 in (1993)
Month to date precipitation 0.27 0.25  
Year to date precipitation 4.51 8.52  
Sea Level Pressure  
Sea Level Pressure 30.41 in    
Wind  
Wind Speed 13 mph (WSW)    
Max Wind Speed 31 mph    
Max Gust Speed 39 mph    
Visibility 10 miles    
Events      
T = Trace of Precipitation, MM = Missing Value Source: NWS Daily Summary

Daily Weather History Graph

Daily Weather History Graph

Search for Another Location

Airport or City:

Trip Planner

Search our weather history database for the weather conditions in past years. The results will help you decide how hot, cold, wet, or windy it might be!

Date:

Astronomy

Nov. 12, 2012 Rise Set
Actual Time 6:55 AM MST 4:50 PM MST
Civil Twilight 6:25 AM MST 5:20 PM MST
Nautical Twilight 5:51 AM MST 5:53 PM MST
Astronomical Twilight 5:19 AM MST 6:26 PM MST
Moon 5:23 AM MST (11/12) 3:58 PM MST (11/12)
Length of Visible Light 10h 54m
Length of Day
9h 55m
Waning Crescent, 2% of the Moon is Illuminated
Nov 12
Waning Crescent
Nov 13
New
Nov 20
First Quarter
Nov 28
Full
Dec 6
Last Quarter

Hourly Weather History & Observations

Time (MST) Temp. Windchill Dew Point Humidity Pressure Visibility Wind Dir Wind Speed Gust Speed Precip Events Conditions
12:53 AM 14.0 °F -3.0 °F 8.1 °F 77% 30.39 in 10.0 mi WSW 18.4 mph 34.5 mph N/A   Scattered Clouds
1:10 AM 14.0 °F -0.8 °F 8.6 °F 79% 30.20 in 10.0 mi WSW 13.8 mph 31.1 mph N/A   Mostly Cloudy
1:45 AM 14.0 °F -5.1 °F 8.6 °F 79% 30.20 in 10.0 mi WSW 24.2 mph 36.8 mph N/A   Overcast
1:53 AM 14.0 °F -4.3 °F 8.1 °F 77% 30.38 in 10.0 mi WSW 21.9 mph 33.4 mph N/A   Overcast
2:03 AM 14.0 °F -3.4 °F 8.6 °F 79% 30.20 in 10.0 mi WSW 19.6 mph 33.4 mph N/A   Mostly Cloudy
2:25 AM 14.0 °F -3.0 °F 8.6 °F 79% 30.20 in 10.0 mi West 18.4 mph 31.1 mph N/A   Scattered Clouds
2:53 AM 14.0 °F -5.1 °F 8.1 °F 77% 30.40 in 10.0 mi WSW 24.2 mph 38.0 mph N/A   Clear
3:53 AM 14.0 °F -3.0 °F 7.0 °F 74% 30.41 in 10.0 mi WSW 18.4 mph 33.4 mph N/A   Clear
4:53 AM 15.1 °F -1.6 °F 7.0 °F 70% 30.43 in 10.0 mi WSW 18.4 mph 34.5 mph N/A   Clear
5:53 AM 15.1 °F -4.0 °F 6.1 °F 68% 30.45 in 10.0 mi WSW 25.3 mph 34.5 mph N/A   Clear
6:53 AM 15.1 °F -2.0 °F 6.1 °F 68% 30.48 in 10.0 mi WSW 19.6 mph 32.2 mph N/A   Clear
7:53 AM 17.1 °F -0.6 °F 6.1 °F 62% 30.49 in 10.0 mi SW 23.0 mph 28.8 mph N/A   Clear
8:53 AM 19.9 °F 10.1 °F 8.1 °F 60% 30.56 in 10.0 mi West 8.1 mph - N/A   Clear
9:53 AM 21.0 °F 9.3 °F 9.0 °F 60% 30.55 in 10.0 mi WSW 11.5 mph 21.9 mph N/A   Clear
10:53 AM 23.0 °F 10.1 °F 10.0 °F 58% 30.53 in 10.0 mi SW 15.0 mph 27.6 mph N/A   Clear
11:53 AM 25.0 °F 19.3 °F 10.0 °F 53% 30.49 in 10.0 mi Variable 4.6 mph - N/A   Clear
12:53 PM 23.0 °F 14.7 °F 10.0 °F 58% 30.48 in 10.0 mi Variable 6.9 mph 19.6 mph N/A   Clear
1:53 PM 26.1 °F 14.0 °F 12.0 °F 55% 30.47 in 10.0 mi West 15.0 mph - N/A   Clear
2:53 PM 27.0 °F 16.7 °F 12.0 °F 53% 30.45 in 10.0 mi SSW 11.5 mph 19.6 mph N/A   Mostly Cloudy
3:53 PM 26.1 °F 17.6 °F 9.0 °F 49% 30.46 in 10.0 mi West 8.1 mph - N/A   Scattered Clouds
4:53 PM 25.0 °F 20.7 °F 10.0 °F 53% 30.44 in 10.0 mi West 3.5 mph - N/A   Mostly Cloudy
5:53 PM 26.1 °F - 10.0 °F 51% 30.42 in 10.0 mi Calm Calm - N/A   Overcast
6:53 PM 26.1 °F 15.6 °F 10.9 °F 53% 30.41 in 10.0 mi SW 11.5 mph - N/A   Overcast
7:53 PM 26.1 °F 18.4 °F 10.9 °F 53% 30.41 in 10.0 mi WSW 6.9 mph - N/A   Scattered Clouds
8:53 PM 26.1 °F 16.2 °F 12.0 °F 55% 30.40 in 10.0 mi SW 10.4 mph - N/A   Overcast
9:53 PM 26.1 °F 15.0 °F 10.9 °F 53% 30.39 in 10.0 mi WSW 12.7 mph - N/A   Mostly Cloudy
10:53 PM 24.1 °F 12.0 °F 10.0 °F 55% 30.39 in 10.0 mi WSW 13.8 mph - N/A   Clear
11:53 PM 25.0 °F 14.2 °F 12.0 °F 58% 30.37 in 10.0 mi WSW 11.5 mph - N/A   Clear